Regional Weather Roundup
Issued by NWS Cleveland, OH

Home | Current Version | Previous Version | Text Only | Print | Product List | Glossary Off
Versions: 1 2 3 4 5 6 7 8 9 10 11 12 13 14 15 16 17 18 19 20 21 22 23 24 25 26 27 28 29 30 31 32 33 34 35 36 37 38 39 40 41 42 43 44 45 46 47 48 49 50

000
ASUS41 KCLE 010800
RWRCLE
OHIO REGIONAL WEATHER ROUNDUP
NATIONAL WEATHER SERVICE WILMINGTON, OH
400 AM EDT WED OCT 01 2014

NOTE: "FAIR" INDICATES FEW OR NO CLOUDS BELOW 12,000 FEET WITH NO
SIGNIFICANT WEATHER AND/OR OBSTRUCTIONS TO VISIBILITY.

OHZ001>008-015>018-024>027-034-035-043-044-010900-
   NORTHWEST OHIO

CITY           SKY/WX    TMP DP  RH WIND       PRES   REMARKS
DEFIANCE       CLOUDY    52  48  86 NE5       30.03F
FINDLAY        CLOUDY    53  49  86 N6        30.00F
TOLEDO EXPRESS CLOUDY    49  47  93 N3        30.02F
TOLEDO METCALF CLOUDY    52  48  86 N6        30.02F
LIMA           CLOUDY    51  49  92 N5        30.01F
$$

OHZ009>014-019>023-028>033-038-089-010900-
   NORTHEAST OHIO

CITY           SKY/WX    TMP DP  RH WIND       PRES   REMARKS
CLE-HOPKINS    CLOUDY    56  53  90 CALM      30.01F
CLE-LAKEFRONT  CLOUDY    59  54  83 NE6       29.99F
CUY CO. ARPT   NOT AVBL
LORAIN-ELYRIA  FOG       53  50  89 W3        30.01S VSB 3/4
ASHTABULA      FOG       49  48  97 E3        30.00S VSB 3/4
AKRON-CANTON   CLOUDY    55  52  89 N7        29.98F
WOOSTER        NOT AVBL
MANSFIELD      FOG       48  48 100 CALM      30.00F VSB 1/4
YOUNGSTOWN     MOCLDY    53  53 100 NE3       29.98F FOG
$$

OHZ042-051>053-060>062-070>072-077>081-010900-
  SOUTHWEST OHIO

CITY           SKY/WX    TMP DP  RH WIND       PRES   REMARKS
CINC-COVINGTON CLEAR     53  47  79 E5        29.98F
CINC-LUNKEN    CLEAR     48  47  96 CALM      30.00F
HAMILTON       CLEAR     43  42  97 CALM      30.00F
DAYTON         NOT AVBL
WRIGHT-PAT AFB CLEAR     44  43  95 CALM      30.00F
DAYTON GENERAL CLEAR     46  45  96 NE5       29.98F
WILMINGTON     CLEAR     44  42  93 NE5       29.98F FOG
$$

OHZ036-037-039>041-045>050-054>059-063>069-073>076-082>088-010900-
  CENTRAL AND SOUTHEAST OHIO

CITY           SKY/WX    TMP DP  RH WIND       PRES   REMARKS
COLUMBUS       MOCLDY    49  48  97 CALM      29.98F
OSU AIRPORT    CLOUDY    50  49  96 N5        30.00S FOG
BOLTON FIELD   NOT AVBL
RICKENBACK AFB NOT AVBL
NEWARK         CLOUDY    50  48  93 N3        29.99S
MARION         FOG       46  45  96 CALM      30.00F VSB 1/2
LANCASTER      FOG       47  46  97 CALM      29.99S VSB 1/2
ZANESVILLE     CLOUDY    54  51  90 N5        29.98S
NEW PHILLY     CLOUDY    55  54  96 NW3       29.99F
$$


USA.gov is the U.S. government's official web portal to all federal, state and local government web resources and services.